Wind_Speed
62 59 63 66 67 68 68 67 66 66 66 65 65 67 68 68 70 70 70 70 72 76 80 82 83 82 79 70 69 65 60 58 55 50 41 31 29 30 27 28 29 31 35 41
60 60 61 65 66 64 64 65 65 65 65 63 67 68 67 66 66 68 71 75 77 79 81 80 78 71 67 68 65 60 57 51 42 30 24 25 22 20 20 23 27 31 36 38
58 57 57 60 59 60 61 65 65 66 67 63 63 65 70 70 74 75 75 78 79 79 76 70 65 65 64 63 60 53 40 30 20 19 19 15 14 18 23 25 30 35 38 41
54 56 55 55 57 59 61 61 62 62 65 68 72 73 70 74 73 75 76 75 74 68 63 62 62 61 59 55 42 26 20 17 12 10 8 13 18 22 25 30 34 36 37 41
52 54 55 57 59 61 64 65 67 68 69 70 69 67 67 68 68 67 65 62 61 63 62 61 59 52 40 24 17 16 9 3 3 9 16 18 21 23 28 33 34 34 38 43
50 53 55 58 60 62 62 62 63 63 61 61 61 59 55 56 56 58 62 63 63 59 53 40 30 21 16 12 5 3 4 9 14 17 18 21 22 26 32 33 34 37 41 45
46 49 52 53 54 54 55 54 54 53 50 45 44 44 47 50 51 48 42 34 27 18 12 13 13 9 1 6 10 12 13 15 15 15 16 19 24 26 29 34 36 38 40 44
33 37 39 40 40 40 38 38 38 39 41 43 39 30 28 26 18 11 7 6 7 8 5 2 4 8 12 13 14 12 14 15 16 17 19 21 24 27 33 37 41 42 44 46
19 20 22 25 28 30 34 33 29 24 21 21 23 23 20 15 10 6 3 2 7 8 12 16 18 17 15 15 14 13 14 17 20 22 22 21 29 31 32 39 38 40 43 46
13 13 13 14 15 16 16 14 12 10 9 7 5 2 1 4 8 12 18 20 22 21 18 16 15 15 14 12 12 13 11 14 18 21 26 29 30 31 33 36 39 39 41 46
5 5 4 3 2 3 2 3 6 9 10 14 17 17 18 18 19 21 21 20 17 15 14 12 11 8 8 14 18 20 20 20 22 26 25 25 25 25 28 31 32 34 39 43
12 12 14 17 17 18 19 19 19 18 19 18 18 17 17 15 14 13 12 11 9 8 6 5 6 8 9 14 12 16 19 19 19 21 21 18 22 25 27 31 34 34 36 43
21 21 18 17 16 15 16 15 14 13 13 11 10 9 8 8 9 8 7 4 2 6 8 8 9 11 11 13 14 15 15 17 21 22 22 23 27 29 30 31 36 39 40 41
10 10 9 9 7 6 7 8 8 7 6 6 5 4 2 3 1 3 6 6 7 7 10 12 12 14 14 14 17 19 20 20 22 23 21 24 26 30 32 34 37 41 43 43
8 8 7 6 6 6 6 6 6 6 7 10 10 11 10 12 14 13 13 16 17 17 17 18 20 22 20 21 22 22 23 24 26 29 31 34 36 37 39 42 47 50 49 48
12 11 11 13 12 12 14 13 16 15 16 19 16 19 21 22 23 25 25 26 27 28 25 25 27 28 23 23 27 30 31 33 36 37 42 41 41 44 47 49 53 52 52 53
17 17 19 23 18 19 23 21 21 23 25 26 26 27 27 28 29 29 30 35 35 35 35 36 37 36 36 39 40 39 43 48 48 48 48 49 50 54 57 59 61 61 61 62
27 28 27 30 35 32 32 34 34 33 31 33 35 34 37 37 39 43 39 42 44 46 50 49 49 50 50 49 51 50 56 56 59 56 57 58 59 62 65 65 66 67 67 69
35 36 39 39 39 41 42 42 42 41 40 42 42 44 45 47 50 54 53 56 57 56 53 53 52 55 58 57 56 59 64 64 63 66 68 71 73 75 75 76 76 75 74 78
46 45 43 44 44 45 50 51 51 50 47 47 47 51 51 50 51 56 57 58 58 56 55 54 57 60 61 62 63 67 70 70 72 73 75 75 78 81 81 83 84 86 86 85
54 52 51 51 49 51 55 56 53 56 55 56 57 58 59 61 61 60 63 65 65 66 67 69 71 73 72 73 74 74 75 78 81 84 83 85 87 87 89 91 93 92 92 93
59 61 62 62 61 59 62 62 62 62 63 63 64 66 68 68 67 69 71 73 75 77 75 75 77 78 78 79 78 81 84 86 89 90 92 96 93 95 98 99 97 97 98 101
63 64 61 67 67 70 68 68 70 70 71 73 74 76 77 76 76 76 77 80 81 83 83 84 85 86 88 88 88 89 91 93 96 99 99 100 102 105 105 105 106 108 108 105
71 74 76 77 78 80 80 79 79 80 81 83 84 87 86 85 87 88 90 92 93 93 92 93 94 96 98 97 96 96 98 99 99 100 103 105 107 108 109 109 110 112 113 114
79 82 85 81 85 87 88 90 96 96 94 92 94 92 91 94 94 93 94 98 101 103 104 104 105 106 108 107 107 107 107 108 108 108 109 110 110 111 112 115 117 119 121 119
94 95 94 93 99 99 98 103 103 104 103 109 105 103 104 103 102 104 108 110 108 107 109 111 114 114 115 116 117 117 117 117 117 118 120 121 121 122 122 122 123 123 118 113
Wind_Direction
236 239 239 243 247 251 254 258 260 262 263 268 269 270 274 275 276 279 282 282 284 285 287 288 291 292 294 294 297 297 297 296 298 299 299 301 303 303 308 316 320 324 322 323
236 241 244 247 250 254 257 261 263 265 267 269 273 275 277 278 278 279 280 282 284 284 286 288 290 292 292 294 295 296 297 300 298 297 302 304 307 320 330 342 346 349 352 348
237 241 243 247 249 253 255 258 261 264 267 271 270 271 275 275 277 279 280 281 282 284 287 288 289 292 295 297 296 296 297 294 296 307 305 313 346 359 1 0 3 3 357 352
236 240 242 245 248 251 253 259 262 266 268 268 271 272 274 277 279 280 280 282 283 285 285 287 292 295 296 294 294 289 290 298 316 309 338 13 18 18 15 8 6 4 1 1
236 237 238 242 247 251 253 253 258 265 269 272 274 277 281 280 279 280 281 282 282 283 285 288 294 294 289 283 284 292 312 336 34 29 29 27 30 28 22 17 12 7 4 3
234 237 241 244 248 255 261 264 267 271 275 279 282 282 282 283 284 283 281 281 282 284 286 288 280 273 279 292 331 48 88 60 45 41 36 29 26 24 20 14 7 4 2 4
241 243 247 252 257 260 264 268 273 276 278 279 282 286 288 286 285 285 284 282 282 279 263 260 274 283 341 79 96 85 68 56 52 41 35 25 21 12 9 10 6 2 4 8
239 245 250 256 261 267 272 275 277 280 284 283 287 286 290 292 292 289 290 286 275 271 254 170 123 100 94 87 81 75 69 52 41 28 27 22 10 10 9 9 3 5 6 6
254 258 264 268 270 273 277 283 282 279 279 280 285 286 284 286 288 284 269 164 124 111 102 107 105 97 85 68 61 57 41 35 27 17 8 3 356 357 2 359 356 359 1 4
264 269 270 272 270 271 270 275 283 288 287 300 307 289 180 106 93 97 102 102 102 101 98 92 88 82 66 51 33 23 3 360 360 355 351 350 351 350 353 355 351 352 353 355
235 232 223 198 180 166 139 105 92 95 101 101 98 100 100 99 98 99 99 99 98 97 93 82 54 50 38 1 357 356 352 351 352 351 346 345 342 346 344 343 345 344 346 349
111 116 115 108 106 103 99 100 100 101 99 99 99 101 103 100 108 111 108 104 97 87 58 17 354 344 321 333 338 326 330 323 315 317 328 337 339 330 332 338 341 341 336 344
105 106 102 101 103 105 112 117 119 123 125 132 137 144 148 154 159 157 167 168 61 335 336 333 322 308 295 287 299 312 317 312 307 314 321 327 324 319 323 324 327 334 336 335
120 127 128 128 125 130 129 129 136 139 139 161 188 222 239 261 282 328 320 308 310 301 321 323 309 302 297 301 305 304 302 301 301 305 308 311 317 318 319 324 326 326 330 331
175 176 177 185 199 207 215 206 213 239 247 244 222 229 248 248 251 254 269 272 289 294 289 290 298 296 287 288 295 295 295 300 307 308 309 307 308 310 317 323 322 323 323 324
226 235 241 247 256 265 264 268 268 264 260 261 270 272 254 265 270 270 271 273 278 286 287 287 287 295 284 290 295 295 300 304 304 304 310 313 310 309 312 313 317 317 316 316
265 261 263 272 261 258 269 274 265 270 275 271 273 278 279 274 275 270 273 272 271 280 288 291 293 288 286 292 291 288 300 302 302 302 307 308 308 311 313 315 313 314 313 314
275 275 273 271 281 274 270 271 277 278 274 281 277 281 285 284 281 285 287 286 285 287 285 285 288 291 292 292 290 287 299 297 302 300 301 304 305 306 307 307 309 309 310 309
274 277 280 280 280 281 278 279 280 281 280 280 281 282 286 280 280 282 287 291 291 288 284 285 284 286 287 288 289 288 292 296 298 300 301 302 305 306 305 305 305 305 305 306
277 276 276 277 279 280 277 278 280 278 280 284 283 285 285 284 283 285 286 286 281 279 279 280 283 286 288 289 291 292 293 293 293 295 295 296 297 301 302 303 302 303 303 303
274 276 275 274 274 273 275 275 276 277 279 279 282 283 283 283 284 285 285 286 286 286 285 285 284 284 285 284 287 287 288 289 292 292 290 293 294 297 299 301 303 306 306 304
274 275 275 275 273 271 271 274 276 277 279 281 281 280 279 281 281 282 283 283 284 286 285 285 284 283 284 285 285 286 287 290 291 290 289 292 291 293 296 297 298 300 301 301
277 278 279 277 275 276 276 276 276 277 279 278 278 278 278 277 277 278 279 280 282 283 283 283 284 285 286 285 285 286 287 286 287 288 289 291 291 290 290 292 294 296 297 297
276 274 273 273 275 276 276 278 280 281 280 279 278 278 279 278 278 278 279 278 280 280 279 279 280 281 282 281 281 281 281 282 283 284 285 286 284 285 288 290 291 293 295 297
275 272 271 273 274 275 277 279 282 282 280 281 280 279 280 280 281 281 282 282 279 278 279 279 280 280 280 282 283 284 284 285 286 287 287 287 287 287 289 291 293 295 295 296
271 270 272 275 277 277 277 280 281 281 280 282 283 281 281 281 281 282 284 285 286 285 283 280 280 280 281 283 284 286 287 289 290 290 290 289 290 291 292 293 294 295 293 292
Height
10701 10706 10708 10712 10716 10720 10724 10727 10730 10731 10732 10734 10733 10732 10731 10733 10731 10730 10728 10727 10724 10720 10716 10712 10709 10704 10700 10694 10690 10685 10680 10675 10671 10665 10660 10656 10653 10649 10646 10643 10639 10634 10629 10620
10696 10697 10702 10705 10708 10713 10716 10717 10719 10720 10722 10726 10720 10719 10720 10720 10720 10718 10716 10714 10710 10707 10704 10700 10696 10691 10686 10682 10678 10673 10668 10664 10659 10657 10654 10651 10649 10646 10643 10640 10635 10630 10623 10616
10688 10692 10695 10698 10701 10705 10707 10708 10710 10711 10711 10715 10712 10710 10708 10709 10707 10706 10703 10699 10696 10693 10690 10686 10682 10678 10675 10670 10666 10662 10658 10654 10653 10652 10650 10648 10645 10643 10640 10636 10631 10624 10618 10610
10680 10684 10688 10691 10694 10696 10697 10699 10700 10701 10702 10701 10699 10699 10701 10695 10694 10691 10688 10685 10681 10678 10675 10673 10669 10667 10664 10659 10656 10653 10651 10650 10650 10649 10647 10646 10644 10640 10637 10631 10625 10621 10614 10606
10673 10677 10680 10683 10685 10687 10689 10690 10691 10691 10691 10690 10688 10689 10685 10682 10678 10676 10673 10669 10667 10665 10662 10661 10659 10656 10652 10649 10648 10648 10648 10648 10648 10647 10645 10644 10641 10637 10633 10628 10624 10618 10610 10601
10666 10670 10674 10676 10678 10679 10680 10681 10681 10680 10680 10679 10677 10675 10673 10666 10664 10662 10658 10655 10653 10652 10651 10650 10648 10647 10646 10646 10645 10645 10647 10648 10647 10645 10644 10642 10639 10635 10630 10626 10621 10615 10607 10599
10662 10665 10667 10669 10671 10671 10672 10672 10672 10672 10671 10669 10667 10665 10664 10657 10651 10647 10644 10642 10641 10641 10641 10643 10644 10644 10643 10644 10645 10645 10647 10647 10646 10645 10643 10640 10637 10633 10629 10625 10620 10613 10605 10596
10656 10659 10661 10663 10664 10665 10665 10665 10664 10663 10662 10659 10658 10656 10654 10650 10645 10641 10639 10638 10638 10639 10640 10641 10642 10642 10644 10644 10645 10646 10647 10646 10645 10643 10641 10639 10635 10631 10626 10621 10616 10609 10602 10594
10654 10656 10657 10658 10658 10659 10658 10657 10656 10654 10654 10653 10653 10651 10648 10645 10642 10639 10638 10638 10639 10640 10641 10642 10644 10645 10646 10647 10648 10648 10647 10645 10643 10640 10638 10635 10631 10627 10622 10617 10612 10606 10599 10592
10651 10651 10652 10652 10652 10653 10653 10653 10651 10650 10650 10650 10649 10648 10645 10643 10642 10641 10641 10641 10642 10643 10644 10645 10646 10646 10647 10647 10646 10645 10644 10642 10639 10637 10634 10630 10627 10622 10618 10612 10608 10603 10597 10590
10649 10650 10651 10651 10651 10651 10651 10651 10651 10651 10652 10651 10650 10649 10648 10647 10646 10645 10645 10645 10646 10646 10647 10647 10647 10647 10647 10646 10644 10642 10640 10638 10635 10632 10629 10626 10622 10618 10614 10609 10604 10599 10594 10588
10651 10651 10652 10653 10653 10653 10654 10655 10655 10655 10655 10655 10654 10653 10651 10651 10650 10649 10649 10648 10648 10648 10648 10647 10647 10646 10645 10643 10640 10638 10635 10632 10630 10627 10623 10620 10616 10612 10608 10604 10599 10594 10589 10584
10657 10658 10658 10659 10659 10659 10659 10659 10659 10658 10658 10658 10656 10655 10654 10652 10651 10651 10650 10649 10649 10648 10647 10646 10645 10643 10641 10639 10636 10633 10631 10627 10624 10621 10618 10614 10611 10606 10602 10598 10593 10589 10584 10578
10662 10662 10662 10662 10662 10662 10661 10661 10660 10660 10659 10658 10657 10655 10654 10653 10652 10652 10651 10649 10647 10646 10645 10643 10641 10638 10636 10634 10631 10628 10625 10622 10618 10615 10611 10608 10604 10600 10595 10591 10587 10583 10578 10573
10663 10663 10663 10663 10662 10661 10661 10660 10659 10659 10658 10656 10655 10654 10652 10651 10649 10647 10646 10644 10643 10642 10640 10638 10635 10632 10630 10628 10624 10620 10617 10613 10610 10607 10604 10600 10595 10591 10587 10584 10579 10575 10570 10566
10662 10662 10662 10661 10661 10660 10659 10658 10657 10656 10654 10653 10652 10650 10649 10646 10644 10642 10641 10639 10637 10635 10633 10631 10628 10625 10622 10619 10616 10611 10608 10605 10603 10598 10593 10589 10585 10580 10576 10572 10569 10565 10560 10556
10660 10660 10659 10656 10657 10656 10654 10653 10651 10650 10649 10648 10647 10645 10643 10640 10636 10635 10634 10631 10629 10627 10624 10622 10619 10614 10612 10610 10606 10600 10597 10594 10590 10586 10581 10578 10574 10569 10563 10559 10554 10551 10547 10542
10653 10653 10653 10651 10648 10649 10647 10644 10643 10642 10641 10640 10638 10636 10634 10631 10627 10624 10624 10620 10619 10617 10614 10610 10606 10601 10598 10596 10593 10588 10584 10580 10576 10570 10566 10562 10560 10556 10550 10545 10540 10535 10532 10527
10644 10643 10642 10642 10640 10638 10636 10634 10632 10631 10632 10629 10628 10625 10623 10620 10615 10609 10611 10607 10604 10601 10598 10596 10592 10587 10584 10581 10578 10573 10568 10564 10560 10555 10548 10543 10540 10537 10531 10528 10522 10517 10514 10508
10632 10632 10632 10630 10630 10629 10622 10619 10618 10618 10620 10616 10614 10612 10609 10606 10604 10596 10594 10591 10588 10585 10582 10581 10576 10571 10568 10565 10561 10555 10550 10546 10542 10538 10533 10527 10522 10518 10513 10507 10502 10497 10492 10487
10617 10617 10617 10614 10616 10614 10607 10604 10605 10602 10603 10602 10600 10596 10592 10588 10586 10584 10576 10570 10569 10567 10564 10561 10557 10552 10550 10547 10543 10537 10532 10527 10522 10517 10511 10506 10501 10496 10490 10485 10477 10473 10468 10463
10602 10601 10599 10597 10594 10594 10589 10590 10589 10587 10586 10586 10583 10577 10572 10570 10568 10563 10559 10554 10550 10546 10543 10540 10536 10530 10526 10523 10520 10514 10509 10504 10498 10493 10489 10483 10477 10472 10466 10461 10454 10450 10446 10440
10588 10583 10583 10575 10572 10568 10571 10572 10570 10569 10568 10564 10561 10555 10551 10549 10546 10542 10539 10533 10529 10525 10521 10517 10512 10507 10501 10498 10494 10490 10483 10479 10473 10468 10464 10459 10452 10448 10443 10438 10431 10424 10418 10415
10570 10563 10558 10554 10554 10548 10547 10548 10546 10545 10546 10543 10539 10531 10529 10529 10523 10519 10514 10509 10505 10500 10497 10493 10488 10482 10476 10470 10465 10464 10459 10454 10449 10444 10438 10432 10428 10422 10416 10411 10404 10395 10387 10381
10544 10538 10530 10540 10529 10525 10523 10521 10519 10517 10515 10512 10505 10503 10503 10500 10497 10493 10488 10483 10478 10474 10470 10464 10460 10455 10449 10443 10436 10433 10430 10425 10421 10415 10410 10403 10396 10391 10386 10377 10370 10364 10352 10347
10508 10505 10510 10517 10502 10502 10502 10492 10488 10484 10482 10476 10475 10474 10468 10466 10465 10461 10456 10452 10448 10443 10439 10435 10428 10424 10419 10414 10407 10403 10398 10392 10386 10383 10374 10367 10361 10354 10348 10343 10335 10323 10320 10312